Regional Weather Roundup
Issued by NWS

Home | Current Version | Previous Version | Graphics & Text | Print | Product List | Glossary On
Versions: 1 2 3 4 5 6 7 8 9 10 11 12 13 14 15 16 17 18 19 20 21 22 23 24 25 26 27 28 29 30 31 32 33 34 35 36 37 38 39 40 41 42 43 44 45 46 47 48 49 50
000
ASUS45 KTFX 300910
RWRMT
MONTANA REGIONAL WEATHER ROUNDUP
NATIONAL WEATHER SERVICE GREAT FALLS MT
300 AM MDT TUE JUN 30 2015

NOTE: "FAIR" INDICATES FEW OR NO CLOUDS BELOW 12000 FEET WITH NO
SIGNIFICANT WEATHER AND/OR OBSTRUCTIONS TO VISIBILITY.

MTZ001>007-043-301000-
WEST OF THE DIVIDE

CITY           SKY/WX    TMP DP  RH WIND       PRES   REMARKS
KALISPELL      MOSUNNY   71  55  56 NE3       29.99F
MISSOULA       CLOUDY    69  62  78 SE6       30.06R
BUTTE          LGT RAIN  61  55  81 N12       30.23R
MULLAN PASS    CLEAR     64  51  62 NW6       30.21S
DEER LODGE       N/A     63  61  94 S5        30.18F
EUREKA           N/A     57  57 100 CALM      30.03S VSB 1/2
HAMILTON         N/A     68  63  83 S10       30.08S
PLAINS           N/A     65  56  72 CALM      30.00R
RONAN            N/A     66  57  72 NW5       30.06R
$$

MTZ008-052>055-301000-
SOUTHWEST MONTANA

CITY           SKY/WX    TMP DP  RH WIND       PRES   REMARKS
BOZEMAN        PTCLDY    62  55  77 SW5       30.11S
DILLON         PTCLDY    62  55  77 S7        30.16R
W YELLOWSTONE  CLOUDY    57  52  82 CALM      30.30R
THREE FORKS      N/A     59  59 100 CALM      30.10R
TWIN BRIDGES     N/A     61  53  74 E2        30.13R
$$

MTZ009-010-012-014-046-048-049-054-301000-
EAST SLOPES AND CENTRAL MONTANA

CITY           SKY/WX    TMP DP  RH WIND       PRES   REMARKS
CUT BANK       PTCLDY    63  55  75 NW10      29.99S
GREAT FALLS    MOCLDY    67  59  75 S10       29.99F
MALMSTROM AFB  MOCLDY    67  59  75 SW14      29.98F
HELENA         CLOUDY    69  60  73 S3        30.07S
CONRAD           N/A     61  61 100 CALM      30.01S
$$

MTZ011-013-016-021-045-047-050-051-301000-
NORTH CENTRAL MONTANA

CITY           SKY/WX    TMP DP  RH WIND       PRES   REMARKS
HAVRE          PTCLDY    68  48  48 E7        29.92S HAZE
CHINOOK          N/A     70  46  43 E5        29.93R
FORT BENTON      N/A     70  61  73 W10G16    29.93F
$$

MTZ017>020-022>027-061-062-301000-
NORTHEAST MONTANA

CITY           SKY/WX    TMP DP  RH WIND       PRES   REMARKS
JORDAN           N/A     70  47  43 NE12      29.95F
SIDNEY         CLOUDY    70  57  64 CALM      29.93F
WOLF POINT     CLOUDY    68  52  56 E3        29.94F HAZE
MALTA            N/A     69  44  40 CALM      29.91F
PLENTYWOOD       N/A     64  54  68 NE6       29.95F
POPLAR           N/A     64  54  68 NE5       29.94F
SCOBEY           N/A     65  46  50 NE1       29.97F
$$

MTZ028>42-056>058-301000-
SOUTHCENTRAL AND SOUTHEAST MONTANA

CITY           SKY/WX    TMP DP  RH WIND       PRES   REMARKS
BAKER          CLOUDY    70  62  76 SE5       29.96F
BILLINGS       CLOUDY    70  58  65 SW13      30.01F
LIVINGSTON     PTCLDY    63  57  81 NW7       30.09F
MILES CITY     MOCLDY    74  59  59 NE10      29.91F
BIG TIMBER       N/A     64  57  77 SW13      30.07F
EKALAKA          N/A     67  55  65 SE1       29.98S
FORSYTH          N/A     73  54  49 CALM      29.91F
LAUREL           N/A     66  55  67 W3        30.00F
ROUNDUP          N/A     71  55  56 CALM      29.91F
$$

REGIONAL REPORTS...DAKOTAS

CITY           SKY/WX    TMP DP  RH WIND       PRES   REMARKS
WILLISTON      CLOUDY    70  58  65 CALM      29.94F HAZE
MINOT          CLOUDY    65  61  87 NE6       29.95R
DICKINSON      MOCLDY    68  59  73 NE9       29.94R
BEACH          PTSUNNY   66  63  88 NE6       29.96S
CROSBY         CLOUDY    63  63 100 CALM      29.96F FOG
BISMARCK       CLOUDY    69  65  86 E10       29.93F
GRAND FORKS    PTCLDY    56  55  97 NW3       29.93F FOG
FARGO          PTCLDY    60  57  89 CALM      29.92F FOG
BUFFALO SD       N/A     68  57  68 W5        29.88F
RAPID CITY     MOCLDY    66  56  70 SW3       29.97F
$$

REGIONAL REPORTS...WYOMING/IDAHO/WASHINGTON

CITY           SKY/WX    TMP DP  RH WIND       PRES   REMARKS
GILLETTE       CLOUDY    67  53  61 SW6       30.07F
SHERIDAN       CLOUDY    69  53  56 S5        30.03F
BUFFALO WY     CLOUDY    69  49  48 SW8       30.12F
CODY           CLOUDY    73  52  46 SW14      30.12F
YELLOWSTONE LA   N/A     56  49  77 CALM      30.39F
IDAHO FALLS    CLOUDY    64  57  78 N12       30.14R
SALMON         PTCLDY    63  57  82 CALM      30.11R
BOISE          PTCLDY    84  52  33 S6        29.95S
SPOKANE        PTCLDY    73  56  54 CALM      30.00R
$$

REGIONAL REPORTS...ALBERTA

CITY           SKY/WX    TMP DP  RH WIND       PRES   REMARKS
EDMONTON       LGT RAIN  61  54  77 NE6       29.97F
CALGARY        MOCLDY    59  57  94 SW3       29.95R
LETHBRIDGE     PTCLDY    59  59 100 SW8       29.94F
MEDICINE HAT   TSTM      61  54  77 W14G31    29.99R
WATERTON GATE    N/A     59  52  77 SW7         N/A
MILK RIVER       N/A     63  59  88 N13         N/A
ONEFOUR          N/A     66  41  39 E15         N/A
$$

REGIONAL REPORTS...SASKATCHEWAN

CITY           SKY/WX    TMP DP  RH WIND       PRES   REMARKS
SWIFT CURRENT  CLOUDY    63  52  67 E7        29.97F HAZE
REGINA         LGT RAIN  63  59  88 SW5       29.97F SMOKE
SASKATOON      CLOUDY    63  57  82 S2        30.00F SMOKE
CYPRESS HILLS    N/A     59  39  47 SE12G17     N/A
VAL MARIE        N/A     59  48  67 S3          N/A
ROCKGLEN         N/A     63  48  59 S6          N/A
ASSINIBOIA       N/A     63  59  88 SE2         N/A
$$



USA.gov is the U.S. government's official web portal to all federal, state and local government web resources and services.